Zurück zum Katalog

COSMOS 2251 DEB

AktivLEO
NORAD 33948·DEBRIS·🇷🇺 Russia

Gestartet Jun 16, 1993 von Plesetsk Cosmodrome

Loading…

Nächste Überflüge (nächste 24 Stunden)

TLE

AktuellSource: Space-Track

Epoche: Sep 14, 2026, 17:31 UTC

1 33948U 93036FD  26257.73009407  .00000254  00000-0  96241-4 0  9997
2 33948  74.0361 158.6459 0023372 173.5580 186.5878 14.35871581919841

Verfolge COSMOS 2251 DEB in Echtzeit mit AllMySat

Download on the App Store